Weather in Artezian

Russia / Republic of Kalmykia     44°56′48″N   46°40′11″E
temp.,
°C
wind,
m/s
gust,
m/s
humid.,
%
clouds,
%
prec.,
mm/h
press.,
hPa
HPBL,
m
27 september, mon
mon2700:00+17w101673100 0.3 10131212
03:00+17w81270100 0.4 10131147
06:00+16w61076100 0.7 1012635
09:00+17wnw7116298 1.1 10131307
12:00+19wnw1015372 0.0 10131930
15:00+19wnw1012345 0.0 10132002
18:00+18wnw710412 0.0 1014700
21:00+15nnw48551 0.0 1016450
28 september, tue
tue2800:00+14w34590 0.0 101692
03:00+13w34620 0.0 101689
06:00+12wnw34653 0.0 101796
09:00+15nw34510 0.0 1018541
12:00+18nw45400 0.0 10181638
15:00+19nw563629 0.0 10182056
18:00+18nw574058 0.0 1019670
21:00+16n365613 0.0 1021346
29 september, wed
wed2900:00+14nne476227 0.0 1021240
03:00+13n34675 0.0 1022112
06:00+11nne47585 0.0 1023221
09:00+13ne66485 0.0 1024696
12:00+15nne444361 0.0 10241295
15:00+15nne5441100 0.0 10241555
18:00+14nne6540100 0.0 10241157
21:00+13nne574178 0.0 1025674
30 september, thu
thu3000:00+12ene695999 0.0 1025744
03:00+12ne584788 0.0 1025484
06:00+10nne5855100 0.0 1026301
09:00+13ne7746100 0.0 10281162
12:00+13ne6640100 0.0 10281460
15:00+14ne5539100 0.0 10281627
18:00+13ene444596 0.0 1029811
21:00+12ene355190 0.0 1030237
1 october, fri
fri100:00+11ene365416 0.0 1030170
03:00+10ne46545 0.0 1031125
06:00+9nne47545 0.0 1031159
09:00+13ne66427 0.0 1032999
12:00+15ene44316 0.0 10321913
15:00+15e54355 0.0 10311915
18:00+13ese45410 0.0 1032638
21:00+12e34460 0.0 1033114